Location: Grossmotten
(48.5500°N, 15.3833°E)
Time: 18:47:20
(UTC+00:00)

Cosmos 1697 Rocket - Pass Details

Date: 15 November 2019
Orbit: 834 x 842 km, 71.0° (Epoch: 14 December)

Event Time Altitude Azimuth Distance (km) Brightness Sun altitude
Exits shadow 02:48:55 26° 150° (SSE) 1,574 4.2 -32.4°
Drops below altitude 10° 02:51:17 10° 152° (SSE) 2,440 5.3 -32.0°
Sets 02:53:42 0° 152° (SSE) 3,369 6.1 -31.6°
